Weather 🌤️

Recent data

Temperatures

Wind

Pressure

Humidity & Precipitation

Last data
obsTime qcStatus tempAvg heatindexAvg windspeedAvg windgustAvg winddirAvg pressureAvg humidityAvg precipRate precipTotal
2026-09-04 12:04:51 1 26.4 26.3 3 6.1 194 999.66 49 0 0
2026-09-04 11:59:51 1 26.3 26.3 1.6 6.1 206 999.66 49 0 0
2026-09-04 11:54:51 1 26.2 26.2 1.7 6.1 182 999.66 49.7 0 0
2026-09-04 11:49:51 1 26 26 1.8 6.1 189 999.83 50 0 0
2026-09-04 11:44:54 1 25.9 25.8 2.1 6.1 175 999.83 50.3 0 0
2026-09-04 11:39:52 1 25.5 25.5 1.7 5.9 160 999.83 51 0 0
2026-09-04 11:34:51 1 25.3 25.2 1.3 4 159 999.83 51.4 0 0
2026-09-04 11:29:51 1 25.2 25.1 0.5 4 164 999.83 52 0 0
2026-09-04 11:24:51 1 25 24.9 2.3 4 155 999.83 52 0 0
2026-09-04 11:19:51 1 24.7 24.6 2 4 192 999.83 52.9 0 0
2026-09-04 11:14:50 1 24.4 24.3 1.4 4 181 999.83 53 0 0
2026-09-04 11:09:50 1 24.1 24 1.8 4 183 999.83 53.2 0 0

Hourly data

Temperatures

Wind

Pressure

Humidity & Precipitation

Last data
obsTime qcStatus tempAvg heatindexAvg windspeedAvg windgustAvg winddirAvg pressureAvg humidityAvg precipRate precipTotal
2026-09-04 11:59:51 1 25.2 25.1 1.7 4.9 180 999.83 51.5 0 0
2026-09-04 10:59:51 1 22.2 21.9 1.7 6.3 257 1000 56 0 0
2026-09-04 09:59:51 1 20.5 20.5 2.4 5.6 249 1000 57.9 0 0
2026-09-04 08:59:51 1 19.7 19.7 1 3.4 220 1000 58.4 0 0
2026-09-04 07:59:51 0 19.4 19.4 0.2 1.3 215 1000 57.9 0 0
2026-09-04 06:59:51 0 19.7 19.7 0.1 2.6 158 1000 56.6 0 0
2026-09-04 05:59:53 1 20.2 20.2 0.5 2.8 159 1000.34 55.1 0 0
2026-09-04 04:59:52 0 21 20.8 0.1 2 160 1001.02 53.8 0 0
2026-09-04 03:59:50 0 21.6 21.2 0.3 3 164 1001.36 52.4 0 0
2026-09-04 02:59:54 0 22.7 22.4 0.8 5.2 209 1001.69 49.7 0 0
2026-09-04 01:59:53 0 23.4 23.1 2.9 7.7 230 1001.86 48.3 0 0
2026-09-04 00:59:52 0 24.1 23.8 3.4 6.3 226 1002.03 47.6 0 0
2026-09-03 23:59:52 0 24.8 24.6 2.6 6 228 1002.2 46.9 0 0
2026-09-03 22:59:52 0 25.7 25.5 3.1 6.6 227 1002.2 45.7 0 0
2026-09-03 21:59:52 0 26.6 26.5 3.1 5.8 228 1002.03 44.2 0 0
2026-09-03 20:59:52 0 27.8 27.6 1 4.7 225 1001.36 41.7 0 0
2026-09-03 19:59:53 1 28.5 28.1 1.8 6.7 240 1001.36 40.2 0 0
2026-09-03 18:59:51 1 28.7 28.3 2.9 9.9 238 1001.53 40.4 0 0
2026-09-03 17:59:51 1 28.3 28.1 3.2 9.3 223 1001.69 41.7 0 0
2026-09-03 16:59:52 1 27.8 27.7 3.4 9.7 249 1001.86 43.4 0 0
2026-09-03 15:59:51 1 27.1 27.2 3 11.3 215 1002.2 44.4 0 0
2026-09-03 14:59:51 1 26.4 26.4 3.5 8 243 1002.71 45.6 0 0
2026-09-03 13:59:55 1 25.6 25.4 3.3 8.9 217 1003.22 46.8 0 0
2026-09-03 12:59:53 1 24.7 24.5 3 7.9 219 1003.72 48.9 0 0